Theta_e
315 313 311 312 319 319 319 321 321 321 327 328 329 337 345 350 351 351 356 359 363 364 365 365 365 365 363 362 362 362 362 362
310 310 316 317 321 320 319 320 321 322 321 330 337 339 348 351 351 353 352 355 361 363 364 364 364 364 363 363 363 363 363 362
309 310 316 318 320 319 318 319 319 320 318 324 339 346 349 350 351 353 352 353 362 362 363 364 364 364 363 363 363 363 363 362
305 309 315 316 320 319 319 319 319 318 318 323 335 344 347 349 352 353 352 353 362 360 362 362 363 362 362 362 362 363 363 362
305 308 311 314 320 317 317 319 317 320 316 325 327 332 348 350 353 352 353 352 358 356 359 361 361 361 361 361 361 361 361 360
306 304 306 314 316 318 317 315 321 319 315 318 324 329 335 348 349 350 351 351 356 354 352 354 357 360 360 360 360 360 360 359
303 305 307 313 311 315 318 315 317 319 318 322 323 326 332 338 345 346 347 351 355 352 352 351 350 355 358 359 359 359 359 358
309 309 309 311 311 312 312 312 312 315 319 321 322 323 328 332 336 342 344 347 353 355 354 352 349 355 352 350 352 353 353 356
309 309 310 309 309 312 309 308 311 312 315 319 320 322 323 328 333 338 344 346 349 357 361 354 350 351 353 347 347 349 351 356
310 310 309 307 309 308 310 310 314 315 316 317 317 319 321 324 329 334 342 346 349 355 362 363 353 350 353 346 348 347 346 359
309 309 309 309 307 307 308 311 313 314 314 315 316 318 322 324 326 332 338 346 349 354 363 366 367 354 354 353 349 350 350 354
308 308 308 306 306 308 309 312 312 312 313 313 315 317 320 323 325 329 340 345 348 353 363 362 363 364 360 360 351 350 349 352
306 307 306 308 304 305 310 312 311 311 313 314 315 316 318 321 326 330 333 341 345 353 358 364 363 361 362 355 354 350 351 361
306 307 308 306 300 308 312 310 310 310 311 312 314 316 318 321 323 326 330 332 335 343 352 363 364 361 360 357 355 353 354 357
302 307 305 304 301 307 311 310 309 311 311 312 314 316 319 320 322 324 328 331 333 338 343 353 366 361 363 366 360 358 357 356
300 304 304 303 302 306 309 309 309 311 312 312 313 315 319 320 322 324 327 331 333 334 344 354 354 363 357 357 361 360 358 356
302 305 303 303 303 306 309 309 309 310 311 312 313 317 318 320 322 323 327 330 334 335 341 342 340 346 350 350 355 356 357 361
302 305 304 303 302 306 308 309 310 310 311 312 314 315 317 319 320 320 326 329 332 334 339 341 339 348 349 352 351 354 354 360
299 303 305 303 300 303 307 309 310 311 312 313 313 314 316 317 319 322 324 327 329 332 335 339 346 347 355 354 353 349 350 352
300 298 295 304 294 303 306 307 309 311 312 312 313 315 316 317 319 321 322 324 327 331 334 336 342 342 347 345 343 344 346 348
Wind_Speed
12 14 17 11 2 7 5 3 1 2 5 6 11 6 6 15 10 14 15 16 16 14 14 14 13 11 12 13 12 11 12 11
11 18 17 8 9 8 5 5 1 1 7 10 7 4 7 13 11 13 14 16 20 15 14 14 13 13 12 13 12 11 11 11
16 20 20 5 6 1 7 4 2 7 6 6 10 8 11 10 10 11 13 15 17 15 15 15 15 13 12 13 13 12 11 10
17 21 18 6 10 9 11 2 1 7 2 8 10 10 8 8 8 10 12 12 15 14 13 13 13 14 14 13 13 13 12 11
21 19 18 16 14 11 12 12 5 5 9 11 14 7 2 3 7 9 12 12 14 17 14 14 13 13 13 13 13 13 13 12
18 17 20 6 13 10 14 10 4 2 9 4 12 4 4 7 7 9 12 13 14 15 16 15 14 13 13 13 13 12 11 12
19 15 14 14 12 11 4 8 10 12 10 13 5 5 7 7 9 8 10 11 13 15 15 15 15 14 11 13 12 13 12 11
15 8 9 12 8 13 7 12 15 15 14 13 8 8 8 9 10 10 11 12 12 13 14 14 12 13 13 13 12 12 13 14
8 4 12 11 10 12 13 17 16 15 13 13 9 10 11 12 12 13 13 11 12 13 12 14 12 10 8 8 9 9 14 12
12 6 10 13 14 16 14 13 16 13 9 10 13 13 15 14 16 15 17 14 12 14 10 11 9 9 10 10 10 9 12 13
13 13 12 12 14 15 15 14 10 13 13 13 13 14 13 13 12 12 13 14 13 12 13 10 9 9 9 9 8 10 10 12
11 14 14 15 16 16 15 10 13 12 13 14 15 15 13 10 6 10 11 6 10 12 10 11 10 11 8 8 11 10 11 11
16 16 16 13 18 20 18 12 15 11 14 12 12 11 12 11 10 10 9 7 8 11 14 14 15 13 10 11 12 11 11 14
18 21 16 9 16 14 11 9 14 14 14 10 12 14 14 11 7 8 9 8 9 10 14 15 13 11 11 12 12 12 11 10
15 12 9 13 13 14 8 9 11 10 11 12 12 10 10 10 10 7 8 8 8 9 12 11 13 11 12 12 12 11 11 11
14 9 9 16 16 15 10 13 14 12 13 13 12 12 11 9 7 5 5 6 6 7 9 9 9 10 11 11 10 11 11 11
7 9 7 13 16 16 13 12 14 14 14 14 15 12 11 9 8 6 6 6 6 7 6 7 10 11 11 12 12 13 12 13
15 14 11 16 17 16 16 17 17 16 16 15 14 13 12 11 2 3 7 7 6 6 7 7 9 9 10 10 13 13 12 12
16 11 12 15 19 21 20 23 20 16 16 14 14 13 11 1 3 6 7 8 8 8 8 8 9 9 9 10 11 11 12 12
15 15 14 17 14 13 13 12 14 15 14 15 10 3 1 3 6 6 9 7 7 8 8 9 8 10 14 12 13 13 13 12
Wind_Direction
244 239 255 278 79 88 118 197 277 213 320 29 53 68 70 87 137 135 142 155 140 142 139 145 151 151 156 158 159 158 154 155
257 254 238 290 225 96 222 160 350 349 98 111 49 27 51 127 144 142 154 159 136 145 142 144 151 155 158 155 153 154 154 155
242 243 260 264 359 139 263 15 66 307 101 103 83 82 109 136 150 158 155 155 152 149 149 150 153 156 158 154 149 148 150 155
239 240 248 193 262 229 262 193 270 252 227 104 110 96 121 144 158 164 152 155 147 149 148 149 156 158 157 155 152 151 150 155
255 253 234 198 238 257 264 252 246 50 262 109 109 62 24 170 150 158 154 165 151 171 166 155 162 162 162 157 157 155 152 150
255 256 252 184 231 243 247 259 23 273 238 199 59 3 229 216 168 174 163 167 158 178 179 183 177 170 167 165 160 156 156 152
241 248 255 270 246 239 240 288 262 255 280 310 26 308 237 208 188 191 171 170 169 178 181 192 187 177 175 175 173 162 162 165
261 300 276 271 211 252 217 242 252 249 241 252 257 270 263 217 217 193 188 192 176 183 182 196 201 173 198 196 201 203 199 189
249 242 277 289 279 259 256 257 258 258 256 249 248 243 263 253 239 207 200 202 191 180 180 199 207 178 189 202 202 205 210 204
277 256 244 248 246 255 257 270 282 285 284 269 263 263 249 233 248 236 190 192 198 177 189 194 212 192 191 203 193 197 201 195
257 256 249 267 258 257 255 242 261 266 250 253 254 249 252 261 255 278 224 180 197 205 190 196 233 215 207 205 199 196 196 193
240 248 238 247 255 247 241 250 243 240 234 250 245 239 251 246 254 250 265 206 196 205 188 192 211 238 205 214 217 204 202 199
238 243 245 244 256 250 244 231 241 241 247 239 256 256 247 255 235 213 235 245 240 215 197 202 210 218 239 216 219 210 215 195
239 215 225 226 260 256 201 209 229 235 236 233 241 242 245 240 259 269 279 245 208 241 199 197 216 218 224 227 228 228 210 210
242 169 248 198 260 223 154 219 233 240 239 235 234 218 249 258 255 255 257 256 264 261 247 213 202 225 224 233 226 223 232 208
261 183 203 251 242 262 201 235 247 235 242 243 241 242 226 212 275 299 330 330 305 279 284 297 244 205 236 230 231 235 230 234
278 238 253 268 273 268 252 252 256 249 247 244 246 245 245 232 223 282 310 314 308 316 271 240 243 232 227 232 227 231 230 229
260 262 254 266 265 269 258 246 251 252 250 248 247 245 246 229 93 308 295 289 292 286 286 266 248 242 252 239 229 224 225 223
261 274 221 255 263 253 249 242 245 249 255 256 260 262 258 34 314 301 298 297 309 315 305 285 278 271 240 242 261 246 218 219
260 258 261 255 278 267 274 266 221 221 235 250 264 106 35 315 276 299 285 317 304 319 315 294 270 261 266 267 237 232 238 227